Home   Weather   San Antonio   Past weeks

Flag for USA Past Weather in San Antonio, Texas, USA — Yesterday and Last 2 Weeks

Now
59 °F

Clear.


Feels Like: 54 °F
Forecast: 53 / 70 °F
Wind: 28 mph from Northwest

Location: San Antonio International Airport

Current Time: Jan 22, 2017 at 6:43:21 am

Latest Report: Jan 22, 2017 at 5:51 am


Visibility: 10 mi

Pressure: 29.61 "Hg

Humidity: 26%

Dew Point: 24 °F

Location of San AntonioLocation

Past Weather in San Antonio — Graph

°F

San Antonio Temperature Yesterday

Maximum temperature yesterday: 82 °F (at 3:51 pm)
Minimum temperature yesterday: 52 °F (at 1:51 am)
Average temperature yesterday: 64 °F

High & Low Weather Summary for the Past Weeks

 TemperatureHumidityPressure
High82 °F (Jan 21, 3:51 pm)100% (Jan 20, 5:51 am)30.75 "Hg (Jan 20, 5:51 am)
Low20 °F (Jan 7, 5:51 am)19% (Jan 7, 3:51 pm)29.37 "Hg (Jan 21, 3:51 pm)
Average60 °F74%30.03 "Hg
* Reported Jan 7 4:51 am — Jan 22 4:51 am, San Antonio, Weather by CustomWeather, © 2017

Note: Actual official high and low records may vary slightly from our data, if they occured in-between our weather recording intervals... More about our weather records

Advertising

San Antonio Weather History for the Previous 24 Hours

Scroll right to see more
 ConditionsComfort  
Time TempWeatherWind HumidityBarometerVisibility
4:51 am
Sun, Jan 22
59 °FPassing clouds.24 mph27%29.60 "Hg10 mi
3:51 am60 °FPassing clouds.21 mph27%29.60 "Hg10 mi
2:51 am60 °FPassing clouds.25 mph27%29.59 "Hg10 mi
1:51 am61 °FPassing clouds.26 mph26%29.59 "Hg10 mi
12:51 am63 °FPassing clouds.30 mph25%29.59 "Hg10 mi
11:51 pm
Sat, Jan 21
64 °FPassing clouds.31 mph26%29.57 "Hg10 mi
10:51 pm66 °FPassing clouds.31 mph27%29.58 "Hg10 mi
9:51 pm65 °FPassing clouds.20 mph37%29.55 "Hg10 mi
8:51 pm67 °FPassing clouds.24 mph35%29.55 "Hg10 mi
7:51 pm69 °FPassing clouds.24 mph33%29.50 "Hg10 mi
6:51 pm73 °FPassing clouds.17 mph28%29.44 "Hg10 mi
5:51 pm78 °FPartly sunny.9 mph22%29.39 "Hg10 mi
4:51 pm78 °FPartly sunny.8 mph25%29.38 "Hg10 mi
3:51 pm82 °FScattered clouds.7 mph23%29.37 "Hg10 mi
2:51 pm81 °FPassing clouds.6 mph27%29.39 "Hg10 mi
1:51 pm79 °FPassing clouds.8 mph34%29.42 "Hg10 mi
12:51 pm74 °FPassing clouds.8 mph43%29.46 "Hg10 mi
11:51 am71 °FPassing clouds.7 mph53%29.53 "Hg10 mi
10:51 am66 °FScattered clouds.7 mph70%29.57 "Hg10 mi
10:16 am62 °FBroken clouds.9 mph80%29.62 "Hg8 mi
9:51 am63 °FPartly sunny.13 mph81%29.58 "Hg7 mi
9:23 am61 °FFog.7 mph87%29.62 "Hg6 mi
8:51 am60 °FFog.9 mph93%29.58 "Hg4 mi
8:28 am59 °FFog.8 mph96%29.61 "Hg4 mi
7:51 am59 °FFog.7 mph96%29.57 "Hg3 mi
6:59 am58 °FFog.6 mph97%29.60 "Hg3 mi
6:22 am58 °FFog.3 mph97%29.60 "Hg1 mi
Weather by CustomWeather, © 2017

See weather overviewHow to use our weather pages